DAL526 KATL-KSLC

Flight info

Callsign DAL526
Flight time N/A
Altitude 28000
Route CUTTN2 HANKO MEMFS TUL PER GCK HGO EKR RACER JAZZZ1
Aircraft A321/M-SDE3FGHIRWY/LB1

Departure

Time 2026-05-06 00:25
Airport Hartsfield Jackson Atlanta International Airport (KATL)

Arrival

Time N/A
Airport Salt Lake City International Airport (KSLC)
Time Latitude Longitude Altitude Speed Heading
2026-05-06 00:12 33.64262 -84.43862 1021 ft 0 kts 270°
2026-05-06 00:14 33.64262 -84.43858 1021 ft 2 kts 270°
2026-05-06 00:15 33.64263 -84.43832 1021 ft 2 kts 270°
2026-05-06 00:15 33.64261 -84.43813 1021 ft 1 kts 293°
2026-05-06 00:15 33.64256 -84.43806 1021 ft 0 kts 325°
2026-05-06 00:15 33.64246 -84.43798 1021 ft 2 kts 325°
2026-05-06 00:16 33.64234 -84.43790 1021 ft 1 kts 349°
2026-05-06 00:16 33.64223 -84.43793 1021 ft 0 kts 28°
2026-05-06 00:17 33.64236 -84.43787 1021 ft 2 kts 12°
2026-05-06 00:17 33.64261 -84.43783 1021 ft 4 kts
2026-05-06 00:17 33.64293 -84.43783 1021 ft 5 kts 355°
2026-05-06 00:17 33.64338 -84.43787 1021 ft 11 kts 357°
2026-05-06 00:18 33.64438 -84.43787 1021 ft 16 kts 13°
2026-05-06 00:18 33.64527 -84.43694 1021 ft 18 kts 64°
2026-05-06 00:18 33.64542 -84.43529 1021 ft 21 kts 90°
2026-05-06 00:18 33.64541 -84.43349 1021 ft 21 kts 91°
2026-05-06 00:19 33.64540 -84.43169 1021 ft 20 kts 91°
2026-05-06 00:19 33.64542 -84.43007 1023 ft 19 kts 89°
2026-05-06 00:19 33.64541 -84.42851 1022 ft 19 kts 91°
2026-05-06 00:19 33.64542 -84.42689 1020 ft 19 kts 89°
2026-05-06 00:20 33.64540 -84.42523 1017 ft 20 kts 90°
2026-05-06 00:20 33.64540 -84.42351 1014 ft 21 kts 90°
2026-05-06 00:20 33.64540 -84.42166 1011 ft 22 kts 90°
2026-05-06 00:20 33.64540 -84.41984 1008 ft 22 kts 90°
2026-05-06 00:21 33.64540 -84.41791 1005 ft 23 kts 90°
2026-05-06 00:21 33.64539 -84.41602 1008 ft 21 kts 90°
2026-05-06 00:21 33.64540 -84.41432 1010 ft 19 kts 90°
2026-05-06 00:21 33.64539 -84.41283 1013 ft 16 kts 90°
2026-05-06 00:22 33.64540 -84.41152 1016 ft 14 kts 90°
2026-05-06 00:22 33.64541 -84.41032 1019 ft 14 kts 89°
2026-05-06 00:22 33.64540 -84.40916 1021 ft 13 kts 90°
2026-05-06 00:22 33.64551 -84.40813 1026 ft 11 kts 70°
2026-05-06 00:23 33.64569 -84.40728 1029 ft 9 kts 86°
2026-05-06 00:23 33.64570 -84.40650 1032 ft 8 kts 90°
2026-05-06 00:23 33.64585 -84.40586 1033 ft 8 kts 48°
2026-05-06 00:23 33.64648 -84.40569 1033 ft 10 kts 350°
2026-05-06 00:24 33.64679 -84.40646 1032 ft 13 kts 269°
2026-05-06 00:24 33.64674 -84.41039 1019 ft 87 kts 272°
2026-05-06 00:24 33.64676 -84.42068 1009 ft 156 kts 269°
2026-05-06 00:24 33.64702 -84.43555 1349 ft 184 kts 268°
2026-05-06 00:25 33.64774 -84.45051 2232 ft 179 kts 269°
2026-05-06 00:25 33.64862 -84.46478 3058 ft 175 kts 269°
2026-05-06 00:25 33.65017 -84.47958 3441 ft 185 kts 277°
2026-05-06 00:25 33.65313 -84.49516 3719 ft 199 kts 279°
2026-05-06 00:26 33.65648 -84.51175 3994 ft 213 kts 279°
2026-05-06 00:26 33.66004 -84.52993 4230 ft 231 kts 279°